Regional Weather Roundup
Issued by NWS

Home | Current Version | Previous Version | Text Only | Print | Product List | Glossary On
Versions: 1 2 3 4 5 6 7 8 9 10 11 12 13 14 15 16 17 18 19 20 21 22 23 24 25 26 27 28 29 30 31 32 33 34 35 36 37 38 39 40 41 42 43 44 45 46 47 48 49 50
000
ASUS43 KLMK 012310
RWRKY
KENTUCKY REGIONAL WEATHER ROUNDUP
NATIONAL WEATHER SERVICE LOUISVILLE KY
600 PM EST SUN FEB 01 2015

NOTE "FAIR" INDICATES FEW OR NO CLOUDS BELOW 12,000 FEET
WITH NO SIGNIFICANT WEATHER AND/OR OBSTRUCTIONS TO VISIBILITY.

KYZ001>023-026-027-061>063-070>075-020000-
WESTERN AND SOUTH CENTRAL KENTUCKY

CITY           SKY/WX    TMP DP  RH WIND       PRES   REMARKS
PADUCAH        CLOUDY    49  46  90 W12       29.66R
HENDERSON      CLOUDY    46  43  87 W13G20    29.63S
OWENSBORO      LGT RAIN  49  49 100 W8        29.62R FOG
HOPKINSVILLE   DRIZZLE   52  52 100 SW12      29.64S
BOWLING GREEN  RAIN      52  49  89 SW9       29.64F FOG
GLASGOW        RAIN      51  51 100 S13G20    29.64S
$$

KYZ024-025-028>034-038-045-046-053-020000-
NORTH CENTRAL KENTUCKY

CITY           SKY/WX    TMP DP  RH WIND       PRES   REMARKS
LOUISVILLE/SDF LGT RAIN  48  46  93 S8        29.60F
LOUISVILLE/LOU LGT RAIN  47  45  93 S8        29.60F
FORT KNOX      LGT RAIN  48  46  93 S10G18    29.59F
$$

KYZ035>037-039>044-047>052-055>060-089>105-020000-
NORTHEAST KENTUCKY

CITY           SKY/WX    TMP DP  RH WIND       PRES   REMARKS
LEXINGTON      LGT RAIN  46  44  93 S15       29.63F FOG
COVINGTON      LGT RAIN  44  42  93 S14       29.59F FOG
FRANKFORT      LGT RAIN  46  44  93 S8        29.60F
$$

KYZ054-064>069-076>088-106>120-020000-
SOUTHEAST KENTUCKY

CITY           SKY/WX    TMP DP  RH WIND       PRES   REMARKS
JACKSON        LGT RAIN  47  43  86 VRB5G17   29.72F
LONDON         RAIN      48  44  86 S10       29.70F FOG
SOMERSET       LGT RAIN  46  46 100 S8        29.70F
MIDDLESBORO    DRIZZLE   45  42  88 S5        29.80F
MONTICELLO     CLOUDY    51  48  89 S16       29.70F FOG
$$



USA.gov is the U.S. government's official web portal to all federal, state and local government web resources and services.